Temp
56 56 56 57 56 56 51 45 39 50 50 41 37 34 42 47 46 49 47 46 44 42 42 40 39 38 41 47 46 41 41 39 26 35 41 43 40 39 38 28 30 28 26 27
56 56 56 56 56 55 45 43 43 49 49 32 31 41 45 46 46 46 47 44 47 45 41 38 40 40 46 48 44 40 41 35 23 30 36 39 36 39 40 38 32 28 25 30
56 56 55 55 55 56 45 43 37 44 43 43 40 39 40 40 46 46 48 46 47 43 40 43 39 39 44 45 45 49 46 37 33 28 32 36 32 36 39 37 23 28 29 33
56 55 55 55 55 55 45 42 40 42 37 42 41 43 43 41 40 45 46 43 44 42 37 39 38 40 40 44 47 43 41 32 30 34 37 37 37 38 37 33 34 31 32 35
56 55 55 55 55 55 44 43 43 42 41 44 40 41 41 43 43 43 41 40 45 43 39 40 39 42 39 39 38 38 41 31 31 27 37 35 33 36 37 38 39 38 37 37
56 55 54 54 55 52 44 45 45 45 42 41 39 40 42 45 46 44 46 44 42 40 42 43 43 43 43 42 40 38 37 32 27 26 33 33 29 34 37 35 38 41 34 40
55 55 54 54 54 53 46 43 43 42 40 41 43 45 45 44 44 42 45 45 41 43 46 45 44 42 42 42 39 42 36 34 29 22 28 19 36 39 40 39 41 42 41 42
56 55 55 54 55 55 46 43 43 42 39 43 44 45 44 43 42 42 44 44 44 47 43 38 34 33 34 36 36 36 38 35 26 22 21 31 35 38 38 37 37 40 42 42
56 55 55 54 54 54 46 42 42 41 41 42 47 44 44 39 37 39 41 44 46 44 40 36 29 29 31 28 29 37 38 36 30 26 22 24 36 40 43 42 32 41 42 41
56 56 55 54 54 54 47 43 44 42 40 43 44 42 42 45 40 38 39 39 39 42 34 32 29 29 36 29 27 26 28 28 26 26 24 31 41 43 43 30 35 42 42 41
56 56 55 54 54 54 48 44 45 42 39 41 44 45 42 43 42 38 41 40 39 36 32 31 32 31 34 31 32 29 28 25 25 27 24 23 43 40 37 40 40 42 40 40
55 55 55 54 54 54 52 43 47 45 40 42 44 43 43 42 42 42 41 41 40 40 35 34 33 33 32 32 30 34 31 36 31 33 34 43 43 41 42 43 41 39 39 40
55 55 55 54 54 54 51 43 43 43 39 39 39 38 42 45 43 44 40 40 43 41 40 37 36 33 34 30 32 33 38 42 37 38 41 42 43 42 42 41 41 41 42 41
55 55 55 54 54 53 52 44 44 42 40 33 36 44 38 43 43 43 43 43 43 42 39 36 35 33 39 34 36 36 41 40 37 36 39 38 41 40 41 41 42 41 42 41
55 55 54 54 53 53 49 45 44 45 41 35 35 39 38 41 41 41 42 42 40 37 35 32 33 36 37 35 34 34 41 39 35 37 42 41 40 41 43 41 40 41 41 40
54 53 53 53 53 52 45 40 43 45 43 34 29 36 34 38 39 39 38 38 37 36 35 33 35 38 35 29 29 40 43 43 44 41 41 42 41 42 42 41 40 41 40 39
53 53 53 52 52 48 43 41 44 47 44 37 29 28 35 37 37 36 36 36 34 34 33 32 32 34 34 29 29 41 42 42 42 41 41 38 39 38 41 41 41 43 39 39
54 53 52 52 51 48 44 44 48 46 42 38 25 27 30 37 33 32 35 34 33 35 32 35 33 34 33 29 37 38 41 40 40 40 40 41 41 40 39 40 39 36 37 37
53 52 50 46 44 41 41 48 48 45 41 32 27 24 27 35 33 33 33 35 31 33 32 32 34 31 28 34 35 37 39 38 39 39 39 38 37 37 37 37 35 33 35 35
49 45 41 36 41 47 46 41 36 36 37 35 26 31 29 34 31 31 31 32 30 27 30 32 30 30 38 40 41 39 40 40 38 30 31 33 32 35 34 34 35 35 34 34
41 36 33 40 47 40 36 32 31 31 27 31 31 30 29 36 31 31 34 30 30 24 26 28 23 26 33 37 38 40 40 39 37 37 37 37 36 34 34 34 35 34 33 32
41 40 41 39 35 32 30 28 30 28 24 28 28 30 34 33 37 32 31 29 29 23 28 25 20 28 34 34 36 37 37 37 38 38 37 37 37 36 35 33 31 31 31 30
40 35 32 31 30 24 23 18 23 17 25 30 31 29 31 31 33 31 30 26 25 29 25 22 25 31 34 34 34 35 37 38 37 37 37 36 36 36 34 34 34 34 34 36
33 30 25 28 21 22 22 21 20 25 27 29 28 26 28 31 29 31 26 29 27 22 19 19 25 30 33 34 34 34 33 35 33 29 29 32 33 33 34 33 33 33 33 35
30 30 24 24 25 20 21 19 24 27 30 29 29 27 28 27 27 28 27 23 20 21 20 25 28 32 33 33 34 34 33 34 31 31 28 29 29 29 32 32 31 31 32 32
30 28 24 26 20 18 19 24 26 30 31 31 30 26 25 25 27 25 24 21 17 23 26 29 28 30 32 33 34 35 36 36 35 34 31 29 26 29 31 33 33 32 32 32
28 26 30 26 24 25 26 29 29 34 32 27 26 22 23 24 24 22 24 22 25 29 28 28 30 30 33 34 34 35 35 34 34 33 32 30 32 26 20 27 33 33 33 31
MSLP
1020.70 1020.18 1019.66 1019.31 1019.10 1019.06 1019.14 1019.02 1019.03 1018.33 1018.17 1018.54 1019.19 1019.99 1019.51 1019.21 1018.82 1018.21 1017.86 1017.61 1017.54 1017.59 1017.66 1017.98 1018.53 1019.26 1019.62 1019.65 1019.77 1020.02 1020.48 1021.33 1022.54 1022.48 1022.20 1021.97 1021.92 1022.14 1022.58 1023.78 1024.28 1024.39 1023.99 1021.54
1021.02 1020.54 1020.02 1019.72 1019.43 1019.43 1019.77 1019.58 1019.03 1018.45 1018.26 1019.09 1019.82 1019.53 1019.37 1019.14 1018.82 1018.52 1018.10 1017.91 1017.76 1017.62 1017.96 1018.49 1018.88 1019.50 1019.84 1019.82 1020.10 1020.34 1020.66 1021.39 1022.42 1022.83 1022.78 1022.31 1022.12 1021.95 1022.20 1022.81 1023.51 1023.78 1023.45 1021.04
1021.09 1020.77 1020.40 1019.91 1019.64 1019.56 1019.81 1019.94 1019.53 1019.02 1018.87 1018.73 1019.10 1019.24 1019.14 1019.05 1018.79 1018.60 1018.41 1018.25 1018.03 1017.99 1018.24 1018.44 1019.20 1019.86 1020.18 1020.19 1020.39 1020.51 1020.75 1021.42 1021.99 1022.10 1021.80 1021.76 1022.16 1021.80 1021.94 1022.51 1023.35 1022.87 1021.72 1020.56
1021.25 1020.85 1020.46 1020.14 1019.80 1019.69 1020.10 1019.86 1020.09 1019.50 1019.33 1019.02 1018.65 1018.66 1018.87 1018.86 1018.79 1018.66 1018.57 1018.48 1018.38 1018.42 1018.69 1019.00 1019.52 1020.10 1020.55 1020.72 1020.86 1021.01 1021.46 1022.04 1022.27 1022.10 1021.91 1021.77 1021.55 1021.53 1021.67 1021.82 1021.48 1021.61 1020.68 1020.30
1021.31 1021.05 1020.66 1020.20 1019.82 1019.68 1020.12 1020.03 1019.84 1019.68 1019.42 1018.88 1018.64 1018.53 1018.48 1018.64 1018.71 1018.70 1018.69 1018.67 1018.54 1018.64 1018.96 1019.26 1019.63 1019.96 1020.55 1020.83 1021.41 1021.57 1021.88 1022.54 1022.94 1022.75 1021.92 1021.68 1021.35 1020.89 1020.84 1020.76 1020.86 1020.60 1020.19 1019.76
1021.26 1021.04 1020.78 1020.41 1019.89 1019.60 1020.10 1019.85 1019.65 1019.46 1019.51 1019.19 1018.96 1018.56 1018.29 1018.28 1018.46 1018.91 1018.85 1018.81 1018.89 1019.17 1019.47 1019.50 1019.77 1020.13 1020.42 1020.65 1021.31 1022.02 1022.44 1022.94 1023.67 1023.31 1022.49 1021.82 1020.80 1019.17 1019.18 1019.26 1019.14 1019.23 1019.47 1018.91
1021.31 1021.13 1020.78 1020.53 1020.20 1019.91 1020.20 1020.58 1020.48 1020.31 1019.93 1019.28 1018.83 1018.54 1018.48 1018.60 1018.72 1018.85 1019.04 1019.12 1019.34 1019.72 1019.61 1019.71 1019.80 1020.17 1020.58 1020.94 1021.45 1021.75 1022.60 1023.39 1023.90 1024.23 1023.19 1021.76 1018.89 1018.22 1018.08 1018.33 1018.13 1018.27 1018.49 1018.63
1021.14 1021.15 1020.99 1020.61 1020.31 1020.11 1020.25 1020.51 1020.73 1020.63 1020.21 1019.43 1018.90 1018.74 1018.83 1019.13 1019.35 1019.50 1019.60 1019.81 1020.03 1019.88 1020.11 1020.60 1020.90 1021.13 1021.26 1021.44 1022.18 1022.44 1022.75 1023.39 1024.07 1024.16 1023.52 1020.88 1018.51 1017.89 1017.73 1017.67 1017.93 1017.77 1018.06 1018.76
1020.81 1020.94 1020.89 1020.76 1020.53 1020.25 1020.51 1020.93 1020.74 1020.77 1020.67 1019.81 1019.09 1019.11 1019.05 1019.45 1019.85 1020.27 1020.46 1020.58 1020.42 1020.39 1020.82 1021.33 1021.68 1021.56 1021.36 1022.07 1022.63 1022.86 1023.16 1023.40 1024.01 1024.31 1023.54 1021.13 1018.26 1017.59 1017.38 1017.40 1017.76 1017.66 1017.91 1018.62
1020.36 1020.74 1020.78 1020.68 1020.47 1020.38 1020.53 1021.05 1020.91 1020.79 1020.76 1019.96 1019.50 1019.51 1019.56 1019.43 1019.81 1020.28 1020.66 1020.94 1021.11 1021.20 1021.61 1022.03 1021.99 1021.52 1021.13 1021.74 1022.27 1022.96 1023.42 1023.87 1023.82 1023.74 1022.85 1020.12 1017.76 1017.41 1017.37 1017.97 1017.86 1017.69 1018.09 1018.65
1020.09 1020.26 1020.56 1020.62 1020.49 1020.28 1020.44 1020.94 1020.88 1021.05 1020.90 1020.37 1020.08 1020.07 1020.09 1020.09 1020.31 1020.68 1020.96 1021.26 1021.45 1021.88 1022.34 1022.38 1021.75 1021.40 1020.91 1021.21 1021.33 1021.68 1021.98 1022.55 1022.84 1023.07 1022.30 1019.63 1017.32 1017.80 1017.83 1017.16 1017.46 1017.88 1018.47 1019.06
1019.58 1019.90 1020.15 1020.40 1020.43 1020.30 1020.14 1020.85 1020.74 1020.86 1021.15 1021.02 1020.78 1020.61 1020.65 1020.80 1020.86 1020.86 1020.98 1020.90 1020.72 1020.92 1021.64 1021.91 1021.79 1021.57 1021.13 1020.97 1021.05 1020.33 1020.59 1019.63 1020.06 1019.92 1018.43 1017.04 1016.74 1016.73 1017.00 1017.33 1017.93 1018.59 1019.01 1019.51
1019.01 1019.49 1019.76 1020.03 1020.21 1020.24 1020.28 1020.68 1020.79 1020.93 1021.18 1021.15 1021.24 1021.30 1021.28 1021.08 1021.16 1021.09 1021.25 1021.05 1020.93 1021.09 1021.09 1021.27 1021.38 1021.50 1021.01 1020.95 1020.27 1019.54 1018.77 1018.36 1018.66 1018.45 1016.79 1016.83 1016.92 1017.25 1017.47 1017.81 1018.43 1018.86 1019.27 1019.64
1018.30 1018.93 1019.36 1019.69 1020.00 1020.17 1020.21 1020.68 1020.76 1020.83 1021.37 1021.78 1021.59 1021.23 1021.56 1021.61 1021.45 1021.06 1020.96 1020.93 1020.86 1021.07 1021.55 1021.95 1021.82 1021.39 1020.27 1020.05 1019.62 1019.28 1017.99 1017.96 1017.79 1017.46 1016.93 1016.96 1017.12 1017.34 1017.77 1018.30 1018.72 1019.16 1019.49 1019.70
1017.77 1018.34 1018.83 1019.21 1019.65 1020.08 1020.37 1020.60 1020.75 1020.62 1021.00 1021.49 1021.67 1021.50 1021.66 1021.58 1021.51 1021.36 1021.27 1021.36 1021.36 1021.53 1021.87 1022.36 1022.35 1021.42 1020.93 1020.06 1019.62 1018.15 1017.09 1016.71 1016.95 1016.18 1016.05 1016.41 1016.83 1017.22 1017.88 1018.48 1018.98 1019.29 1019.52 1019.77
1017.25 1017.76 1018.35 1018.86 1019.33 1019.79 1020.49 1021.02 1020.91 1020.62 1020.63 1021.26 1021.85 1022.03 1021.80 1021.70 1021.58 1021.55 1021.63 1021.72 1022.01 1021.95 1022.18 1022.19 1021.49 1021.10 1021.34 1020.74 1019.41 1016.56 1015.77 1015.43 1015.48 1015.80 1016.07 1016.52 1016.83 1017.58 1018.04 1018.52 1018.94 1019.26 1019.61 1019.83
1016.64 1017.16 1017.85 1018.58 1018.95 1019.61 1020.33 1020.64 1020.57 1020.53 1020.67 1021.09 1021.92 1022.17 1022.16 1021.95 1021.99 1022.19 1022.32 1022.26 1022.55 1022.61 1022.50 1022.26 1021.89 1021.43 1020.96 1020.51 1018.84 1016.28 1015.69 1015.68 1015.80 1015.95 1016.50 1017.55 1017.69 1017.99 1018.22 1018.44 1018.94 1019.37 1019.75 1019.97
1016.09 1016.73 1017.50 1018.25 1019.02 1019.84 1020.24 1020.54 1020.53 1020.63 1020.86 1021.17 1022.07 1022.16 1022.44 1022.09 1022.16 1022.41 1022.44 1022.65 1022.86 1022.89 1022.74 1022.37 1021.95 1021.61 1021.04 1019.63 1016.94 1016.57 1016.40 1016.27 1016.43 1016.49 1016.67 1017.03 1017.54 1018.24 1018.71 1018.97 1019.40 1019.78 1020.09 1020.24
1015.83 1016.58 1017.48 1018.75 1019.11 1019.51 1020.17 1020.31 1020.49 1020.57 1021.40 1021.39 1021.99 1022.16 1022.13 1022.20 1022.34 1022.38 1022.49 1022.33 1022.65 1022.78 1022.69 1022.28 1021.95 1021.06 1019.86 1017.53 1017.08 1017.00 1016.81 1016.63 1016.72 1017.00 1017.11 1017.49 1018.02 1018.67 1019.18 1019.59 1019.91 1020.20 1020.26 1020.30
1015.97 1016.93 1017.83 1019.14 1019.50 1019.59 1020.15 1020.61 1020.85 1021.01 1021.10 1021.51 1021.83 1021.38 1021.84 1021.69 1022.21 1022.62 1022.81 1022.57 1022.60 1022.79 1022.24 1022.11 1021.54 1019.84 1018.07 1017.47 1017.00 1016.72 1016.62 1016.70 1016.92 1017.52 1018.12 1018.34 1018.84 1019.21 1019.59 1019.90 1020.15 1020.28 1020.20 1020.05
1015.96 1017.14 1018.55 1019.41 1019.82 1020.00 1020.53 1021.05 1021.44 1021.74 1021.74 1021.19 1021.04 1020.96 1021.36 1021.46 1021.66 1022.06 1022.27 1022.35 1022.70 1022.69 1022.04 1021.91 1021.01 1019.45 1018.09 1017.42 1016.85 1016.11 1016.20 1016.54 1017.07 1017.37 1017.88 1018.25 1018.64 1019.11 1019.50 1019.76 1019.82 1019.81 1019.67 1019.59
1015.10 1016.36 1018.46 1019.71 1020.05 1020.50 1020.99 1021.26 1021.52 1021.47 1020.80 1020.46 1020.72 1020.94 1020.91 1021.32 1021.27 1021.79 1022.37 1022.33 1022.65 1022.18 1021.98 1021.90 1020.42 1018.94 1018.25 1017.77 1017.24 1016.84 1016.80 1017.07 1017.60 1017.83 1018.28 1018.54 1018.74 1018.96 1019.28 1019.45 1019.39 1019.20 1018.98 1018.82
1015.26 1017.01 1018.60 1019.04 1020.17 1020.62 1020.71 1020.86 1020.98 1020.80 1019.93 1020.16 1020.43 1020.84 1021.06 1021.49 1021.55 1021.83 1022.12 1022.18 1022.15 1021.85 1021.91 1021.04 1019.82 1019.06 1018.59 1018.08 1017.85 1017.83 1017.76 1017.82 1018.13 1018.43 1018.63 1018.87 1019.02 1019.04 1019.04 1018.99 1018.83 1018.65 1018.47 1018.18
1015.27 1016.71 1018.04 1018.38 1019.08 1018.97 1018.98 1019.14 1019.16 1019.29 1019.38 1019.83 1020.18 1020.94 1021.18 1021.30 1021.53 1021.57 1021.73 1021.42 1021.60 1021.57 1021.24 1020.34 1019.91 1019.50 1018.97 1018.48 1018.29 1018.33 1018.48 1018.52 1018.67 1018.92 1018.93 1019.07 1019.04 1018.74 1018.55 1018.56 1018.44 1018.32 1017.80 1017.21
1015.21 1015.95 1016.47 1017.29 1017.91 1018.22 1018.59 1018.91 1019.00 1019.16 1019.37 1019.77 1020.41 1021.01 1021.30 1021.40 1021.45 1021.23 1021.12 1021.21 1020.87 1020.51 1019.94 1019.70 1019.58 1019.24 1019.04 1018.85 1018.65 1018.57 1018.57 1018.62 1018.74 1018.54 1018.72 1018.64 1018.55 1018.57 1018.27 1018.00 1017.76 1017.43 1017.06 1016.93
1015.17 1015.97 1016.65 1017.33 1018.01 1018.89 1018.78 1018.90 1019.20 1019.09 1019.39 1019.79 1020.09 1020.88 1021.21 1021.07 1020.88 1020.84 1020.53 1020.43 1019.94 1019.47 1019.35 1019.21 1019.28 1019.20 1019.05 1018.93 1018.77 1018.53 1018.28 1018.27 1018.23 1018.21 1018.18 1018.16 1018.23 1018.02 1017.50 1016.85 1016.68 1016.61 1016.37 1016.05
1015.57 1016.10 1016.15 1016.70 1017.30 1018.00 1018.42 1018.50 1018.82 1018.94 1019.21 1019.68 1019.98 1020.49 1020.51 1020.75 1020.59 1020.36 1019.91 1019.55 1019.19 1019.09 1019.10 1019.13 1019.11 1019.00 1018.82 1018.66 1018.44 1018.15 1018.00 1017.95 1017.88 1017.72 1017.62 1017.42 1017.07 1016.99 1016.98 1016.57 1015.56 1015.51 1015.10 1015.07
Wind_Speed
17 18 18 11 7 6 4 1 3 2 2 5 3 2 2 1 1 2 2 2 4 3 2 4 4 4 2 4 2 2 0 5 3 5 2 0 2 4 5 6 4 2 4 9
16 17 17 14 5 9 2 0 2 3 4 4 2 1 3 3 2 3 4 1 3 1 2 4 3 4 1 4 3 3 1 0 3 8 6 4 3 4 4 3 4 5 6 7
14 15 17 15 10 4 3 2 3 4 4 2 6 3 2 2 1 1 2 1 4 2 2 3 3 2 0 2 2 1 1 1 6 7 5 5 4 5 5 6 4 5 8 4
14 14 15 16 12 4 2 2 2 3 0 3 4 4 3 2 1 1 1 1 1 1 2 2 3 3 2 2 1 2 3 2 2 3 4 3 6 7 8 10 6 8 4 8
13 14 14 14 13 4 2 2 2 3 1 2 2 2 4 5 0 3 1 0 2 2 2 2 4 5 5 5 2 3 1 2 2 4 4 6 6 9 11 12 10 12 8 8
10 11 13 15 14 3 2 2 2 4 3 2 3 3 3 4 7 1 1 1 2 1 3 2 3 3 3 5 7 5 4 4 3 5 4 6 8 9 12 6 6 14 13 9
7 10 11 13 15 8 2 1 1 3 2 2 2 2 1 3 2 4 2 2 2 2 0 1 4 4 3 4 3 3 5 4 3 4 4 2 6 2 2 8 7 8 4 6
6 8 10 11 13 13 3 1 2 2 2 1 1 4 3 4 2 2 3 2 0 0 2 3 3 4 4 1 5 4 3 4 1 3 3 9 2 3 4 4 5 2 8 8
2 6 6 8 11 13 3 1 2 3 3 3 3 3 4 4 3 2 2 3 4 3 2 2 3 5 4 3 2 5 3 4 4 2 3 6 3 3 2 1 6 5 7 6
5 5 3 5 7 10 3 0 1 3 2 2 4 2 4 3 3 3 3 2 1 3 2 2 4 4 3 4 6 5 3 1 5 3 3 9 6 5 1 3 5 6 5 5
8 6 3 2 4 7 3 1 2 2 2 3 4 5 0 2 1 4 4 4 1 2 2 3 4 3 5 2 5 7 8 8 5 4 4 11 7 4 7 5 3 5 4 4
10 8 6 3 2 5 2 1 1 2 3 2 1 2 2 2 1 2 2 2 4 5 3 2 1 2 1 4 4 3 4 8 7 10 9 5 7 1 2 3 5 3 6 4
11 9 8 7 3 2 3 2 1 2 3 3 2 1 3 4 3 1 3 2 1 1 1 3 3 4 4 4 6 4 4 5 4 2 6 6 6 4 3 4 5 6 5 5
14 12 10 9 6 3 2 2 1 3 3 2 3 0 2 4 4 0 1 2 1 3 3 0 2 3 3 4 3 4 5 5 5 6 3 2 4 4 7 7 7 7 5 5
15 14 12 11 9 6 3 2 0 1 4 4 2 1 1 3 2 2 1 0 2 2 2 2 3 3 1 2 0 6 6 8 6 8 6 4 4 8 8 8 7 7 6 5
15 14 15 13 11 8 3 2 2 1 3 4 1 2 2 4 5 5 4 2 1 2 3 3 3 1 1 3 5 6 7 5 6 5 3 1 7 7 5 7 8 6 6 4
15 15 16 15 14 3 3 3 2 3 1 3 2 2 2 1 2 2 2 3 1 2 1 2 2 2 3 3 6 4 6 4 4 6 8 5 3 6 7 7 6 5 2 3
16 17 17 16 14 10 2 1 3 1 2 2 2 4 1 3 2 2 1 2 2 0 2 2 2 1 2 7 6 5 5 2 5 7 2 5 5 7 6 4 3 1 3 5
14 15 21 6 1 3 2 5 3 1 2 2 3 4 3 2 1 2 1 2 2 0 2 3 2 3 9 8 5 5 6 6 6 5 6 8 8 7 6 4 2 3 6 6
26 6 3 3 1 16 9 4 2 3 2 2 3 2 3 4 2 1 2 1 1 2 4 1 3 6 9 10 10 7 7 7 8 6 5 6 5 4 3 1 3 5 6 7
2 4 3 2 3 3 2 3 3 2 2 4 4 4 4 3 3 2 0 2 2 3 4 3 3 5 3 6 9 7 6 7 5 6 6 6 7 5 2 4 5 7 8 8
9 12 7 3 2 2 4 4 3 4 6 4 4 4 2 2 2 3 2 2 2 5 2 2 4 4 4 6 6 5 6 9 8 7 7 6 5 5 4 6 8 8 8 8
5 6 5 5 3 4 8 10 4 3 4 4 3 3 3 2 1 2 2 4 5 2 2 5 4 4 6 5 4 5 5 7 6 5 3 3 4 5 6 8 7 8 9 11
4 6 7 8 6 6 6 5 5 4 4 6 4 3 3 2 3 3 4 4 3 3 4 5 2 3 3 4 3 3 4 5 2 3 4 6 8 9 8 8 7 8 11 13
4 4 6 4 2 2 2 2 4 2 4 4 4 3 2 2 2 3 2 3 5 5 5 4 3 3 2 1 2 4 3 4 6 7 6 9 8 8 10 9 8 9 10 10
3 3 4 3 5 2 2 2 3 1 4 3 3 3 3 4 3 4 6 3 6 4 3 3 4 3 2 3 3 6 6 6 7 7 7 6 6 9 10 11 9 9 10 13
3 2 4 3 4 3 3 3 3 3 4 3 3 5 6 2 3 4 4 4 3 3 1 2 4 4 4 6 7 7 7 8 8 7 7 8 9 4 3 12 16 11 12 9
Wind_Direction
1 9 11 19 30 10 14 11 50 286 44 53 57 65 64 218 244 311 354 52 61 78 113 56 79 123 93 352 19 99 212 124 162 215 185 113 193 215 160 127 231 205 141 273
2 4 11 2 2 38 353 336 249 334 82 97 17 173 69 68 15 14 3 65 36 354 91 98 105 109 322 41 63 156 240 89 60 341 348 348 222 219 197 125 80 207 144 259
5 4 3 8 347 359 81 30 27 331 34 148 123 121 143 118 56 78 0 51 350 39 80 37 137 110 46 38 90 183 62 152 167 189 199 143 205 222 207 145 132 198 221 203
1 2 4 5 5 344 76 78 271 212 291 341 104 98 177 126 140 37 5 2 241 202 119 102 113 103 66 355 48 2 99 201 22 274 267 257 223 216 209 205 193 182 249 204
3 357 358 7 7 5 64 86 96 3 309 334 100 117 168 168 160 140 237 220 196 45 74 160 179 145 169 198 214 184 44 246 92 291 281 220 253 244 228 228 229 248 265 274
5 2 358 358 7 52 26 313 334 104 277 310 83 219 184 159 128 48 31 64 101 55 151 104 128 89 82 154 154 189 149 132 77 274 355 330 296 235 217 199 199 213 229 217
1 357 3 2 1 27 137 269 95 66 270 124 210 168 111 144 127 155 154 39 88 191 155 32 45 56 51 32 89 135 152 129 123 251 358 279 243 189 169 202 233 208 137 144
330 350 355 5 6 7 79 26 71 93 273 187 91 135 115 86 29 62 137 55 137 285 41 56 29 348 4 357 42 52 58 131 141 139 221 285 257 218 202 183 227 242 169 144
221 322 355 5 6 7 79 48 154 106 106 268 308 165 165 161 167 353 71 5 358 62 120 107 187 226 200 216 310 3 70 80 134 153 191 243 247 206 187 140 277 176 133 146
202 272 330 10 15 11 76 333 48 103 122 295 12 167 188 170 131 138 139 172 92 42 106 155 194 249 145 188 182 164 124 182 197 210 248 284 233 183 163 120 240 160 135 122
210 212 223 3 13 16 69 230 18 102 144 289 24 3 311 356 95 153 192 84 332 67 164 173 234 183 223 194 172 179 168 155 186 160 203 269 158 105 177 198 109 134 113 126
205 213 194 174 37 12 70 91 290 116 129 234 24 93 100 66 66 138 193 193 160 183 144 217 353 278 180 182 250 166 227 189 181 188 214 233 206 174 106 121 125 115 122 119
200 209 199 178 162 62 73 148 291 63 57 336 37 265 0 48 41 183 155 301 8 44 177 169 189 227 135 203 240 209 259 181 223 157 235 211 178 104 128 117 124 129 129 144
195 201 191 179 169 164 104 123 233 104 123 113 278 65 23 318 352 253 205 155 108 108 72 87 210 217 162 224 249 213 210 136 196 258 274 57 164 178 154 126 124 127 140 146
200 196 179 173 169 156 93 73 50 160 141 189 270 79 13 325 327 23 50 110 101 114 98 114 241 263 284 261 289 232 184 190 187 229 208 175 207 162 150 140 151 155 149 156
200 188 175 172 165 147 107 327 274 216 142 101 330 295 22 8 51 68 57 51 74 103 148 211 243 235 189 267 249 260 227 218 228 221 142 152 129 134 143 141 156 166 169 188
191 182 173 171 161 133 164 187 186 164 102 104 345 298 254 29 69 40 37 25 42 109 206 231 236 273 149 217 246 251 251 180 124 124 101 59 171 177 163 141 156 156 180 250
185 178 168 156 127 116 132 63 85 76 99 89 129 264 352 194 148 117 138 112 54 271 239 274 220 252 230 251 250 298 326 319 165 178 124 176 146 124 130 107 122 177 272 279
160 147 119 94 38 129 128 128 91 81 180 205 125 164 225 144 58 86 96 136 164 78 238 242 178 197 227 243 260 267 265 202 188 129 101 101 119 128 134 139 168 255 269 269
125 82 95 115 180 115 130 31 49 19 303 36 210 176 196 130 135 166 128 45 220 229 223 123 229 259 278 286 275 246 256 200 141 105 123 113 119 134 126 195 259 242 263 279
101 110 88 107 124 72 58 141 170 152 231 199 218 178 138 212 133 150 198 156 184 243 238 186 249 261 261 318 308 267 197 163 144 115 120 129 139 149 181 288 282 278 267 255
126 105 93 87 89 89 154 184 165 199 223 173 143 185 135 135 101 117 173 192 168 256 142 223 250 258 307 328 331 21 102 116 111 119 132 137 145 176 204 243 256 266 263 275
82 73 119 142 153 170 191 182 204 208 184 168 146 120 127 104 66 115 149 204 228 110 216 237 229 305 330 338 6 50 81 95 103 112 120 195 245 247 230 251 259 270 279 279
103 147 144 198 181 221 185 178 162 205 126 130 112 90 132 133 128 151 212 206 131 226 227 231 270 295 310 16 77 83 56 67 67 257 254 254 250 252 258 256 261 265 275 283
118 153 166 173 144 61 136 144 87 30 117 113 93 69 101 138 175 200 210 196 233 216 227 175 208 226 194 103 119 152 202 240 248 250 237 247 255 260 269 261 252 248 274 285
105 97 109 100 77 1 38 92 108 152 128 100 80 133 157 200 201 184 211 202 221 244 212 194 161 173 228 243 225 230 238 249 258 267 261 257 250 256 261 278 281 282 269 271
99 95 59 90 81 133 151 138 139 150 129 152 133 158 199 93 204 221 198 209 206 206 255 188 201 230 253 250 247 250 252 258 260 261 261 253 258 268 289 286 290 283 271 261